Arar current weather conditions

sailwx.info

Wind from 320 at 7 knots

Air temperature 31.0° C
Dewpoint 11.0° C

Last reported at 2015-Aug-27 22:00 UTC.
Time now 2015-Aug-28 00:19 UTC

Location: N 30°54' E 041°08'.
View on Google Maps.

See reports from other nearby stations

  
Tides and Currents Weather Stations Pressure Air Temp Water Temp Dewpoint Dewpoint Depression Visibility Wind Speed Wind Dir Waves Ship Positions
date/time (UTC)wind fromknots sea level pressurealtimeterstation pressurevisibilityair tempwater tempwave heightnotes
2015-Aug-27 23:00 340 10 31.0
2015-Aug-27 22:00 320 7 31.0
2015-Aug-27 21:00 340 7 32.0
2015-Aug-27 20:00 320 7 33.0
2015-Aug-27 19:00 340 7 35.0
2015-Aug-27 18:00 040 3 35.0
2015-Aug-27 17:00 040 4 37.0
2015-Aug-27 16:00 010 4 40.0
2015-Aug-27 15:00 42.0
2015-Aug-27 14:00 290 3 43.0
2015-Aug-27 12:00 350 5 44.0
2015-Aug-27 11:00 290 6 43.0
2015-Aug-27 10:00 340 4 43.0
2015-Aug-27 09:00 030 4 42.0
2015-Aug-27 08:00 050 4 39.0
2015-Aug-27 07:00 060 6 36.0
2015-Aug-27 06:00 050 6 34.0
2015-Aug-27 05:00 350 8 31.0
2015-Aug-27 04:00 300 6 29.0
2015-Aug-27 03:00 290 7 27.0
2015-Aug-27 02:00 260 5 28.0
2015-Aug-27 01:00 300 3 29.0
2015-Aug-27 00:00 330 7 30.0
2015-Aug-26 23:00 330 10 31.0
2015-Aug-26 22:00 330 10 32.0
2015-Aug-26 21:00 330 9 32.0
2015-Aug-26 20:00 340 4 33.0
2015-Aug-26 19:00 330 3 34.0
2015-Aug-26 18:00 180 4 36.0
2015-Aug-26 17:00 180 3 38.0
2015-Aug-26 16:00 220 4 39.0
2015-Aug-26 15:00 240 5 41.0
2015-Aug-26 14:00 42.0
2015-Aug-26 13:00 200 5 42.0
2015-Aug-26 12:00 42.0
2015-Aug-26 11:00 42.0
2015-Aug-26 10:00 100 4 41.0
2015-Aug-26 09:00 090 10 39.0
2015-Aug-26 08:00 080 10 38.0
2015-Aug-26 07:00 060 10 36.0
2015-Aug-26 06:00 040 12 33.0
2015-Aug-26 05:00 010 10 31.0
2015-Aug-26 04:00 320 4 27.0
2015-Aug-26 03:00 320 5 25.0
2015-Aug-26 02:00 330 4 26.0
2015-Aug-26 01:00 330 8 27.0
2015-Aug-26 00:00 320 8 28.0